Regional Weather Roundup
Issued by NWS State College, PA

Current Version | Previous Version | Text Only | Print | Product List | Glossary On
Versions: 1 2 3 4 5 6 7 8 9 10 11 12 13 14 15 16 17 18 19 20 21 22 23 24 25 26 27 28 29 30 31 32 33 34 35 36 37 38 39 40 41 42 43 44 45 46 47 48 49 50
000
ASUS41 KCTP 010610
RWRCTP

REGIONAL WEATHER ROUNDUP
NATIONAL WEATHER SERVICE STATE COLLEGE PA
200 AM EDT WED OCT 01 2014

Note: "fair" indicates few or no clouds below 12,000 feet with no
significant weather and/or obstructions to visibility.

* = STATION THAT DOES NOT REPORT PRECIPITATION /E.G. RAIN...SNOW...ETC/
    THUNDER OR FOG.

PAZ002>004-007>009-013>016-020>023-029>032-010700-
WESTERN PENNSYLVANIA

CITY           SKY/WX    TMP DP  RH WIND       PRES   REMARKS
ERIE           CLEAR     55  52  89 CALM      29.98S
MEADVILLE      FOG       52  51  97 CALM      29.99R VSB 1/4
FRANKLIN*      CLOUDY    54  52  94 N7        30.00R VSB<1/4
NEW CASTLE       N/A     56  56 100 CALM      30.00R
BEAVER COUNTY  NOT AVBL
BUTLER*        MOCLDY    54  50  87 CALM      30.00S VSB 1/2
PITTSBURGH INT CLOUDY    57  56  96 N5        29.97S
PITTSBURGH     CLEAR     57  54  89 NW3       29.96S FOG
INDIANA*       MOCLDY    55  54  94 CALM      30.01S
LATROBE        CLEAR     54  54 100 CALM      29.98R FOG
WASHINGTON CO* CLOUDY    57  55  94 CALM      29.99S
$$

PAZ004>006-010>012-017>019-024>028-033>037-041-042-045-046-049>053-010700-
CENTRAL PENNSYLVANIA

CITY           SKY/WX    TMP DP  RH WIND       PRES   REMARKS
BRADFORD       FOG       54  53  97 CALM      30.00R VSB 1/4
DUBOIS         FOG       51  51 100 E5        29.98R VSB 1/4
CLEARFIELD     FOG       54  54 100 N5        30.00R VSB 1/4
JOHNSTOWN      PTCLDY    55  50  83 S3        29.98S
ALTOONA        MOCLDY    59  57  93 CALM      29.99R
STATE COLLEGE  FOG       55  55  99 CALM      30.00R VSB<1/4
WILLIAMSPORT   LGT RAIN  62  58  86 E3        29.98R
SELINSGROVE    RAIN      60  59  96 CALM      30.00R FOG
FT INDIANTOWN  LGT RAIN  60  60 100 NE3       30.00R FOG
CAPITAL CITY   CLOUDY    62  59  90 E5        30.00R
HARRISBURG     MOCLDY    59  58  96 NW5       29.99R
YORK           FOG       56  55  97 CALM      29.99R VSB 3/4
$$

PAZ038>040-043-044-047-048-054-055-060>062-067>071-010700-
EASTERN PENNSYLVANIA

CITY           SKY/WX    TMP DP  RH WIND       PRES   REMARKS
SCRANTON       CLOUDY    62  56  80 CALM      30.01R
MOUNT POCONO   CLOUDY    57  55  93 E5        30.03R FOG
ALLENTOWN      MOCLDY    61  58  90 N3        30.00R
QUAKERTOWN*    MOCLDY    59  57  94 CALM      30.01S
READING        CLOUDY    64  58  80 CALM      30.00S
LANCASTER      LGT RAIN  61  59  93 NE8       30.00S
COATESVILLE    CLOUDY    61  59  94 CALM      30.01R
POTTSTOWN      CLOUDY    60  57  89 CALM      30.01R
BLUE BELL      MOCLDY    59  57  94 CALM      29.98S
DOYLESTOWN     CLOUDY    60  59  96 CALM      29.99R
WILLOW GROVE   NOT AVBL
NORTH PHILA    CLOUDY    64  57  78 N6        30.00R
PHILADELPHIA   CLOUDY    64  58  80 NE6       29.99R
$$


USA.gov is the U.S. government's official web portal to all federal, state and local government web resources and services.